Accueil
Images satellite Prévisions 15 joursClimatMétéo marine Cyclones Foudre AéroportsFAQ Actualités A propos
Météo : Europe Afrique Amérique du Nord Amérique du Sud Asie Australie-Océanie Autres
Langues Contact

Bauru, São Paulo, Brésil

latitude: 22-19S, longitude: 049-04W, altitude: 590 m


METAR: SBBU 221700Z 17013KT CAVOK 27/15 Q1018
TAF: absent

Heure: 15:12 (18:12 UTC)

Observation

Le bulletin a été fait il y a 01 heure et 12 minutes, à 17:00 UTC  
Vent 13 kt de sud
Température 27°C
Humidité 48%
Pression 1018 hPa
Visibilité 10 km ou plus
pas de nuages en-dessous de 1500 mètres et pas de cumulonimbus.

Changer d'unités
Les informations qui figurent sur ce site font l'objet d'une clause de non-responsabilité
Météo : Europe Afrique Amérique du Nord Amérique du Sud Asie Australie-Océanie Autres
Images satellite Prévisions 15 joursClimatMétéo marine Cyclones Foudre AéroportsFAQ Langues Contact Actualités A propos